Location: *
(60.1759°S, 155.0663°W)
Time: 21:21:17
(UTC+00:00)

Cosmos 1656 - Pass Details

Date: 17 September 2019
Orbit: 799 x 849 km, 71.1° (Epoch: 20 October)

Event Time Altitude Azimuth Distance (km) Brightness Sun altitude
Rises 12:02:44 0° 223° (SW) 3,365 7.0 -28.5°
Reaches altitude 10° 12:05:12 10° 219° (SW) 2,435 6.3 -28.3°
Maximum altitude 12:10:44 61° 138° (SE) 946 4.1 -28.0°
Drops below altitude 10° 12:16:18 10° 58° (ENE) 2,450 6.1 -27.6°
Sets 12:18:47 0° 54° (NE) 3,387 6.8 -27.4°
